CW1621 Weather Reports


Display with metric or nautical units.
time (UTC)temp
F
wind
direction
speed
MPH
gust
MPH
rain 1hr
in
rain 24hr
in
rain mn
in
humidity
%
barometer
mb
20260510130603 46 112 5.0 6.0 0.00 0.00 0.00 78 1018.7
20260510125603 46 111 5.0 5.0 0.00 0.00 0.00 78 1018.8
20260510125103 46 111 5.0 6.0 0.00 0.00 0.00 78 1018.7
20260510124103 45 110 2.0 3.0 0.00 0.00 0.00 78 1018.8
20260510123603 45 108 2.0 3.0 0.00 0.00 0.00 78 1018.8
20260510123104 45 90 3.0 3.0 0.00 0.00 0.00 77 1018.8
20260510122605 46 90 2.0 3.0 0.00 0.00 0.00 76 1018.9
20260510121103 46 90 4.0 5.0 0.00 0.00 0.00 77 1018.8
20260510120604 46 90 3.0 5.0 0.00 0.00 0.00 77 1018.7
20260510120104 45 121 2.0 3.0 0.00 0.00 0.00 77 1018.7
20260510115603 45 121 2.0 3.0 0.00 0.00 0.00 77 1018.8
20260510115103 45 121 0.0 3.0 0.00 0.00 0.00 76 1018.8
20260510114603 45 121 2.0 3.0 0.00 0.00 0.00 76 1018.8
20260510114103 45 121 2.0 3.0 0.00 0.00 0.00 77 1018.8
20260510113604 45 121 1.0 3.0 0.00 0.00 0.00 76 1018.9
20260510113104 46 121 3.0 3.0 0.00 0.00 0.00 75 1018.9
20260510112604 46 121 2.0 3.0 0.00 0.00 0.00 75 1018.9
20260510112103 46 121 2.0 3.0 0.00 0.00 0.00 75 1018.9
20260510111603 46 121 2.0 3.0 0.00 0.00 0.00 74 1019.0
20260510111104 47 121 5.0 6.0 0.00 0.00 0.00 74 1018.8
20260510110604 47 121 6.0 8.0 0.00 0.00 0.00 74 1018.8
20260510105603 47 121 8.0 9.0 0.00 0.00 0.00 73 1018.9
20260510104604 48 119 6.0 7.0 0.00 0.00 0.00 71 1018.8
20260510104103 48 121 6.0 7.0 0.00 0.00 0.00 70 1018.8
20260510103603 49 123 7.0 7.0 0.00 0.00 0.00 69 1018.9
20260510103104 49 123 7.0 7.0 0.00 0.00 0.00 69 1018.9
20260510102604 49 123 6.0 7.0 0.00 0.00 0.00 68 1019.0
20260510102103 49 122 6.0 7.0 0.00 0.00 0.00 67 1018.9
20260510101103 50 121 5.0 6.0 0.00 0.00 0.00 66 1018.9
20260510100603 51 148 5.0 9.0 0.00 0.00 0.00 65 1018.9
20260510095603 51 148 7.0 10.0 0.00 0.00 0.00 64 1018.9
20260510095103 51 152 6.0 9.0 0.00 0.00 0.00 64 1018.9
20260510094603 51 154 7.0 9.0 0.00 0.00 0.00 64 1018.9
20260510093603 50 159 5.0 7.0 0.00 0.00 0.00 65 1019.2
20260510092603 51 169 5.0 6.0 0.00 0.00 0.00 64 1019.0
20260510092104 51 169 6.0 7.0 0.00 0.00 0.00 64 1019.1
20260510091604 51 168 5.0 6.0 0.00 0.00 0.00 64 1019.1
20260510091103 51 167 6.0 6.0 0.00 0.00 0.00 64 1019.3
20260510090104 50 167 3.0 5.0 0.00 0.00 0.00 65 1019.6
20260510085604 50 167 3.0 3.0 0.00 0.00 0.00 65 1019.7
20260510084603 52 167 3.0 3.0 0.00 0.00 0.00 63 1019.5
20260510084103 52 167 3.0 5.0 0.00 0.00 0.00 63 1019.4
20260510083603 51 167 5.0 6.0 0.00 0.00 0.00 64 1019.7
20260510083103 51 167 6.0 7.0 0.00 0.00 0.00 64 1019.7
20260510082603 52 167 6.0 8.0 0.00 0.00 0.00 64 1019.5
20260510082104 51 169 9.0 10.0 0.00 0.00 0.00 64 1019.8
20260510081603 51 169 9.0 10.0 0.00 0.00 0.00 65 1019.8
20260510081104 50 169 9.0 9.0 0.00 0.00 0.00 67 1020.0
20260510080603 49 167 7.0 9.0 0.00 0.00 0.00 68 1020.3
20260510080103 49 167 6.0 7.0 0.00 0.00 0.00 69 1020.3
20260510075603 49 169 6.0 7.0 0.00 0.00 0.00 68 1020.3
20260510075103 50 170 7.0 9.0 0.00 0.00 0.00 66 1020.1
20260510074103 49 167 6.0 7.0 0.00 0.00 0.00 68 1020.5
20260510073603 48 167 5.0 6.0 0.00 0.00 0.00 70 1020.5
20260510073104 48 172 5.0 6.0 0.00 0.00 0.00 69 1020.5
20260510072603 49 193 4.0 5.0 0.00 0.00 0.00 68 1020.5
20260510071604 50 193 5.0 7.0 0.00 0.00 0.00 67 1020.3
20260510070604 49 194 6.0 7.0 0.00 0.00 0.00 69 1020.6
20260510070103 49 195 6.0 7.0 0.00 0.00 0.00 68 1020.6
20260510065603 49 188 6.0 6.0 0.00 0.00 0.00 69 1020.7
20260510065104 50 188 5.0 5.0 0.00 0.00 0.00 68 1020.4
20260510064104 50 190 6.0 6.0 0.00 0.00 0.00 68 1020.4
20260510063603 50 190 5.0 6.0 0.00 0.00 0.00 69 1020.5
20260510063103 50 190 5.0 5.0 0.00 0.00 0.00 69 1020.5
20260510062603 50 190 5.0 6.0 0.00 0.00 0.00 69 1020.6
20260510062104 50 190 6.0 6.0 0.00 0.00 0.00 69 1020.6
20260510061603 50 190 5.0 5.0 0.00 0.00 0.00 69 1020.7
20260510061103 50 190 5.0 6.0 0.00 0.00 0.00 69 1020.8
20260510060603 50 190 6.0 7.0 0.00 0.00 0.00 69 1020.9
20260510055603 50 190 6.0 7.0 0.00 0.00 0.00 70 1021.0
20260510054603 50 190 5.0 6.0 0.00 0.00 0.00 71 1021.0
20260510054104 49 190 6.0 8.0 0.00 0.00 0.00 72 1021.0
20260510053604 49 190 7.0 8.0 0.00 0.00 0.00 73 1021.1
20260510053105 50 192 7.0 8.0 0.00 0.00 0.00 71 1021.1
20260510052603 51 187 5.0 6.0 0.00 0.00 0.00 70 1020.8
20260510052104 51 179 6.0 6.0 0.00 0.00 0.00 70 1020.8
20260510050104 50 189 7.0 7.0 0.00 0.00 0.00 73 1022.0
20260510045603 49 190 4.0 7.0 0.00 0.00 0.00 72 1022.1
20260510045103 50 193 1.0 6.0 0.00 0.00 0.00 70 1022.0
20260510044103 50 193 5.0 6.0 0.00 0.00 0.00 73 1022.1
20260510043603 50 191 3.0 5.0 0.00 0.00 0.00 73 1022.1
20260510043104 51 110 2.0 3.0 0.00 0.00 0.00 73 1021.9
20260510042604 52 110 2.0 3.0 0.00 0.00 0.00 69 1021.9
20260510042103 53 110 1.0 2.0 0.00 0.00 0.00 69 1021.7
20260510041603 53 110 1.0 3.0 0.00 0.00 0.00 68 1021.7
20260510041104 54 110 2.0 5.0 0.00 0.00 0.00 65 1021.6
20260510040604 54 89 2.0 3.0 0.00 0.00 0.00 65 1021.6
20260510040103 55 71 2.0 3.0 0.00 0.00 0.00 64 1021.5
20260510035604 55 71 1.0 2.0 0.00 0.00 0.00 65 1021.3
20260510035104 55 71 2.0 3.0 0.00 0.00 0.00 67 1021.3
20260510034604 56 54 1.0 3.0 0.00 0.00 0.00 68 1021.1
20260510034104 57 54 0.0 0.0 0.00 0.00 0.00 64 1021.2
20260510033603 57 54 0.0 0.0 0.00 0.00 0.00 59 1021.3
20260510033104 58 54 0.0 1.0 0.00 0.00 0.00 59 1021.0
20260510032603 58 54 1.0 2.0 0.00 0.00 0.00 59 1020.9
20260510031104 58 54 2.0 3.0 0.00 0.00 0.00 60 1020.7
20260510030103 59 37 2.0 3.0 0.00 0.00 0.00 58 1020.7
20260510025103 60 37 1.0 2.0 0.00 0.00 0.00 56 1020.7
20260510024604 60 37 1.0 2.0 0.00 0.00 0.00 54 1020.8
20260510024103 60 37 0.0 1.0 0.00 0.00 0.00 55 1020.8
20260510023604 61 37 1.0 2.0 0.00 0.00 0.00 55 1020.5
20260510023103 61 37 1.0 2.0 0.00 0.00 0.00 55 1020.4
20260510022603 61 37 3.0 3.0 0.00 0.00 0.00 55 1020.4
20260510022104 62 22 3.0 3.0 0.00 0.00 0.00 53 1020.5
20260510021603 62 22 2.0 3.0 0.00 0.00 0.00 52 1020.6
20260510021103 63 22 2.0 3.0 0.00 0.00 0.00 52 1020.2
20260510015603 63 348 0.0 3.0 0.00 0.00 0.00 53 1020.3
20260510015104 64 342 2.0 5.0 0.00 0.00 0.00 52 1020.3
20260510014603 64 347 2.0 3.0 0.00 0.00 0.00 52 1020.3
20260510014103 64 307 2.0 5.0 0.00 0.00 0.00 50 1020.3
20260510013603 64 355 0.0 2.0 0.00 0.00 0.00 50 1020.3
20260510013103 64 355 1.0 3.0 0.00 0.00 0.00 49 1020.4
20260510012603 65 5 1.0 5.0 0.00 0.00 0.00 49 1020.1
20260510011603 65 3 1.0 5.0 0.00 0.00 0.00 48 1020.2
20260510011104 65 308 3.0 7.0 0.00 0.00 0.00 47 1021.0
20260510010603 65 25 2.0 7.0 0.00 0.00 0.00 47 1021.3
20260510010104 66 17 2.0 5.0 0.00 0.00 0.00 47 1021.0
20260510005603 66 355 3.0 5.0 0.00 0.00 0.00 46 1021.0
20260510005103 67 14 2.0 3.0 0.00 0.00 0.00 46 1021.0
20260510004603 66 340 2.0 5.0 0.00 0.00 0.00 46 1021.0
20260510004103 66 355 2.0 5.0 0.00 0.00 0.00 46 1020.9
20260510003603 66 344 3.0 5.0 0.00 0.00 0.00 44 1021.1
20260510003103 66 307 1.0 5.0 0.00 0.00 0.00 45 1021.2
20260510002603 67 323 3.0 7.0 0.00 0.00 0.00 45 1021.1
20260510002103 67 329 1.0 6.0 0.00 0.00 0.00 45 1021.1
20260510001604 67 349 3.0 7.0 0.00 0.00 0.00 42 1021.1
20260510001104 67 336 2.0 5.0 0.00 0.00 0.00 44 1021.0
20260510000603 67 2 3.0 7.0 0.00 0.00 0.00 41 1021.0
20260510000103 68 352 2.0 7.0 0.00 0.00 0.00 42 1020.9
20260509235604 68 323 3.0 6.0 0.00 0.00 0.00 39 1020.9
20260509235104 67 342 3.0 7.0 0.00 0.00 0.00 40 1021.0
20260509234103 67 331 3.0 10.0 0.00 0.00 0.00 41 1021.0
20260509233603 67 311 2.0 9.0 0.00 0.00 0.00 41 1021.0
20260509233104 68 353 5.0 10.0 0.00 0.00 0.00 39 1021.0
20260509232604 68 346 3.0 5.0 0.00 0.00 0.00 39 1021.0
20260509232103 68 316 2.0 9.0 0.00 0.00 0.00 38 1021.0
20260509231604 68 336 3.0 9.0 0.00 0.00 0.00 38 1021.0
20260509231104 68 0 2.0 6.0 0.00 0.00 0.00 38 1021.0
20260509230603 68 310 2.0 10.0 0.00 0.00 0.00 40 1020.9
20260509230103 68 346 1.0 6.0 0.00 0.00 0.00 41 1020.9
20260509225604 67 8 3.0 9.0 0.00 0.00 0.00 42 1021.1
20260509224103 68 353 3.0 7.0 0.00 0.00 0.00 40 1021.0
20260509223104 67 282 3.0 5.0 0.00 0.00 0.00 42 1021.3
20260509222103 66 335 2.0 6.0 0.00 0.00 0.00 42 1021.4
20260509221604 67 291 4.0 7.0 0.00 0.00 0.00 40 1021.4
20260509221103 67 329 2.0 7.0 0.00 0.00 0.00 43 1021.5
20260509220604 66 310 3.0 7.0 0.00 0.00 0.00 43 1021.7
20260509220103 66 324 2.0 7.0 0.00 0.00 0.00 44 1021.7
20260509215603 64 291 2.0 3.0 0.00 0.00 0.00 43 1022.0
20260509215103 64 189 3.0 6.0 0.00 0.00 0.00 41 1022.2
20260509214604 64 153 4.0 10.0 0.00 0.00 0.00 43 1022.1
20260509214104 63 148 2.0 3.0 0.00 0.00 0.00 43 1022.5
20260509213103 64 199 3.0 10.0 0.00 0.00 0.00 43 1022.3
20260509212103 64 236 3.0 12.0 0.00 0.00 0.00 41 1022.5
20260509211604 65 30 3.0 6.0 0.00 0.00 0.00 44 1022.5
20260509211103 64 18 3.0 9.0 0.00 0.00 0.00 46 1022.4
20260509210603 63 24 4.0 10.0 0.00 0.00 0.00 47 1022.1
20260509210103 62 66 1.0 6.0 0.00 0.00 0.00 48 1022.4
20260509205104 63 311 4.0 10.0 0.00 0.00 0.00 48 1022.3
20260509203603 63 200 2.0 5.0 0.00 0.00 0.00 48 1022.3
20260509203103 64 297 3.0 6.0 0.00 0.00 0.00 48 1022.3
20260509202604 64 23 3.0 10.0 0.00 0.00 0.00 50 1022.3
20260509202103 64 33 2.0 10.0 0.00 0.00 0.00 48 1022.4
20260509201103 62 24 3.0 6.0 0.00 0.00 0.00 49 1022.6
20260509200604 62 52 3.0 6.0 0.00 0.00 0.00 48 1022.3
20260509195604 64 337 3.0 7.0 0.00 0.00 0.00 47 1022.1
20260509195104 64 59 2.0 5.0 0.00 0.00 0.00 52 1022.1
20260509194604 63 350 4.0 7.0 0.00 0.00 0.00 50 1022.4
20260509193604 62 322 3.0 6.0 0.00 0.00 0.00 53 1022.6
20260509192604 61 32 4.0 9.0 0.00 0.00 0.00 53 1023.1
20260509192104 62 322 5.0 7.0 0.00 0.00 0.00 51 1022.9
20260509191103 62 320 4.0 7.0 0.00 0.00 0.00 52 1022.9
20260509190603 62 46 3.0 7.0 0.00 0.00 0.00 50 1022.9
20260509190104 62 32 2.0 5.0 0.00 0.00 0.00 53 1022.9
20260509185604 62 311 3.0 6.0 0.00 0.00 0.00 51 1022.9
20260509185104 62 312 3.0 6.0 0.00 0.00 0.00 52 1022.9
20260509184604 61 339 2.0 6.0 0.00 0.00 0.00 54 1022.8
20260509184103 61 317 3.0 8.0 0.00 0.00 0.00 52 1022.8
20260509183604 61 3 2.0 7.0 0.00 0.00 0.00 57 1022.8
20260509183104 62 60 3.0 10.0 0.00 0.00 0.00 50 1022.8
20260509182104 62 313 2.0 5.0 0.00 0.00 0.00 54 1022.8
20260509181604 61 27 1.0 5.0 0.00 0.00 0.00 54 1022.8
20260509181103 61 33 4.0 10.0 0.00 0.00 0.00 51 1022.9
20260509180603 60 319 3.0 9.0 0.00 0.00 0.00 54 1022.9
20260509180104 60 336 2.0 9.0 0.00 0.00 0.00 53 1023.0
20260509175604 59 325 3.0 12.0 0.00 0.00 0.00 52 1022.9
20260509175104 59 314 3.0 8.0 0.00 0.00 0.00 54 1022.9
20260509174604 58 2 3.0 6.0 0.00 0.00 0.00 54 1023.1
20260509174104 58 337 4.0 7.0 0.00 0.00 0.00 55 1023.1
20260509173604 58 288 3.0 5.0 0.00 0.00 0.00 54 1023.1
20260509173104 57 285 3.0 6.0 0.00 0.00 0.00 55 1023.1
20260509172103 57 266 5.0 9.0 0.00 0.00 0.00 53 1023.1
20260509171604 56 321 1.0 5.0 0.00 0.00 0.00 54 1023.4
20260509171104 55 292 5.0 7.0 0.00 0.00 0.00 54 1023.4
20260509170603 55 263 5.0 7.0 0.00 0.00 0.00 53 1023.5
20260509165103 55 279 9.0 12.0 0.00 0.00 0.00 55 1023.5
20260509164603 55 268 6.0 12.0 0.00 0.00 0.00 55 1023.5
20260509164103 55 296 5.0 10.0 0.00 0.00 0.00 57 1023.5
20260509163104 56 280 7.0 12.0 0.00 0.00 0.00 54 1023.3
20260509162604 55 309 4.0 9.0 0.00 0.00 0.00 57 1023.6
20260509162104 55 310 5.0 8.0 0.00 0.00 0.00 54 1023.6
20260509161603 54 243 1.0 7.0 0.00 0.00 0.00 57 1023.6
20260509161104 54 265 7.0 10.0 0.00 0.00 0.00 56 1023.5
20260509160604 54 251 7.0 10.0 0.00 0.00 0.00 56 1023.5
20260509160104 54 282 5.0 6.0 0.00 0.00 0.00 58 1023.5
20260509155604 54 272 6.0 10.0 0.00 0.00 0.00 57 1023.4
20260509155103 54 250 9.0 12.0 0.00 0.00 0.00 56 1023.5
20260509154603 54 270 6.0 12.0 0.00 0.00 0.00 57 1023.4
20260509154104 54 262 2.0 7.0 0.00 0.00 0.00 55 1023.3
20260509153603 54 276 5.0 10.0 0.00 0.00 0.00 57 1023.3
20260509153104 55 269 2.0 10.0 0.00 0.00 0.00 57 1023.3
20260509152103 54 61 1.0 3.0 0.00 0.00 0.00 60 1023.2
20260509151603 54 61 2.0 3.0 0.00 0.00 0.00 60 1023.2
20260509151103 53 50 2.0 3.0 0.00 0.00 0.00 62 1023.3
20260509150604 52 104 2.0 5.0 0.00 0.00 0.00 60 1023.4
20260509150103 53 78 3.0 6.0 0.00 0.00 0.00 60 1023.3
20260509145605 54 55 3.0 3.0 0.00 0.00 0.00 60 1023.2
20260509144604 54 37 2.0 3.0 0.00 0.00 0.00 58 1023.2
20260509144103 54 37 2.0 3.0 0.00 0.00 0.00 62 1023.1
20260509143604 54 39 3.0 5.0 0.00 0.00 0.00 58 1023.2
20260509143103 54 31 1.0 5.0 0.00 0.00 0.00 59 1023.2
20260509142603 54 29 2.0 3.0 0.00 0.00 0.00 58 1023.1
20260509142103 53 17 2.0 3.0 0.00 0.00 0.00 60 1023.1
20260509141604 53 15 3.0 5.0 0.00 0.00 0.00 58 1023.1
20260509141104 53 346 2.0 3.0 0.00 0.00 0.00 60 1022.3
20260509140103 52 344 1.0 3.0 0.00 0.00 0.00 60 1022.3
20260509135603 52 344 2.0 3.0 0.00 0.00 0.00 60 1022.2
20260509135103 51 264 0.0 0.0 0.00 0.00 0.00 64 1022.2
20260509134603 50 264 0.0 0.0 0.00 0.00 0.00 65 1022.4
20260509134104 49 264 0.0 1.0 0.00 0.00 0.00 66 1022.4
20260509133603 48 264 0.0 1.0 0.00 0.00 0.00 67 1022.5
20260509133103 47 264 1.0 1.0 0.00 0.00 0.00 68 1022.5
20260509132603 46 264 2.0 3.0 0.00 0.00 0.00 69 1022.7
20260509132103 46 264 3.0 5.0 0.00 0.00 0.00 69 1022.7
20260509131103 46 265 5.0 7.0 0.00 0.00 0.00 67 1022.5